Radioactive Concentration measured by Seawater Radiation Monitor near Fukushima Daiichi Nuclear Power Station
Date,Time,Cs137(Bq/L),Cs134(Bq/L),Total β(Bq/L)
2016/12/13,00:00,0.82,0.055,ND
2016/12/13,00:10,0.80,0.065,ND
2016/12/13,00:20,0.79,0.063,ND
2016/12/13,00:30,0.80,0.062,ND
2016/12/13,00:40,0.82,0.063,ND
2016/12/13,00:50,0.82,0.062,ND
2016/12/13,01:00,0.84,0.054,ND
2016/12/13,01:10,0.84,0.056,ND
2016/12/13,01:20,0.84,0.061,ND
2016/12/13,01:30,0.82,0.065,ND
2016/12/13,01:40,0.80,0.068,ND
2016/12/13,01:50,0.82,0.059,ND
2016/12/13,02:00,0.81,0.064,ND
2016/12/13,02:10,0.81,0.061,ND
2016/12/13,02:20,0.81,0.054,ND
2016/12/13,02:30,0.82,0.052,ND
2016/12/13,02:40,0.70,0.10,ND
2016/12/13,02:50,0.80,0.067,ND
2016/12/13,03:00,0.80,0.067,ND
2016/12/13,03:10,0.67,0.11,ND
2016/12/13,03:20,0.80,0.073,ND
2016/12/13,03:30,0.67,0.12,ND
2016/12/13,03:40,0.69,0.12,ND
2016/12/13,03:50,0.68,0.11,ND
2016/12/13,04:00,0.69,0.10,ND
2016/12/13,04:10,0.72,0.095,ND
2016/12/13,04:20,0.74,0.086,ND
2016/12/13,04:30,0.76,0.094,ND
2016/12/13,04:40,0.78,0.089,ND
2016/12/13,04:50,0.90,0.058,ND
2016/12/13,05:00,0.80,0.10,ND
2016/12/13,05:10,0.92,0.068,ND
2016/12/13,05:20,0.92,0.062,ND
2016/12/13,05:30,0.91,0.062,9.2
2016/12/13,05:40,0.79,0.10,ND
2016/12/13,05:50,0.77,0.098,ND
2016/12/13,06:00,0.79,0.096,ND
2016/12/13,06:10,0.77,0.10,ND
2016/12/13,06:20,0.75,0.11,ND
2016/12/13,06:30,0.88,0.067,ND
2016/12/13,06:40,0.87,0.074,ND
2016/12/13,06:50,0.89,0.075,ND
2016/12/13,07:00,0.90,0.073,ND
2016/12/13,07:10,0.89,0.072,ND
2016/12/13,07:20,0.93,0.066,ND
2016/12/13,07:30,0.94,0.070,ND
2016/12/13,07:40,0.96,0.066,ND
2016/12/13,07:50,0.95,0.080,ND
2016/12/13,08:00,0.93,0.077,ND
2016/12/13,08:10,0.83,0.12,ND
2016/12/13,08:20,0.95,0.084,ND
2016/12/13,08:30,0.94,0.079,ND
2016/12/13,08:40,0.92,0.081,ND
2016/12/13,08:50,0.93,0.071,ND
2016/12/13,09:00,0.80,0.12,ND
2016/12/13,09:10,0.93,0.083,ND
2016/12/13,09:20,0.81,0.12,ND
2016/12/13,09:30,0.83,0.13,ND
2016/12/13,09:40,0.84,0.12,ND
2016/12/13,09:50,0.84,0.12,ND
2016/12/13,10:00,0.96,0.076,ND
2016/12/13,10:10,0.93,0.077,ND
2016/12/13,10:20,0.93,0.074,ND
2016/12/13,10:30,0.90,0.068,ND
2016/12/13,10:40,0.84,0.077,ND
2016/12/13,10:50,0.83,0.080,ND
2016/12/13,11:00,0.85,0.073,ND
2016/12/13,11:10,0.84,0.068,ND
2016/12/13,11:20,0.73,0.10,ND
2016/12/13,11:30,0.75,0.098,ND
2016/12/13,11:40,0.77,0.091,ND
2016/12/13,11:50,0.76,0.093,10
2016/12/13,12:00,0.74,0.099,12
2016/12/13,12:10,0.76,0.11,8.9
2016/12/13,12:20,0.85,0.070,ND
2016/12/13,12:30,0.84,0.064,9.0
2016/12/13,12:40,0.75,0.097,ND
2016/12/13,12:50,0.85,0.055,ND
2016/12/13,13:00,0.72,0.10,ND
2016/12/13,13:10,0.80,0.059,ND
2016/12/13,13:20,0.78,0.064,ND
2016/12/13,13:30,0.67,0.11,ND
2016/12/13,13:40,0.77,0.070,ND
2016/12/13,13:50,0.67,0.11,ND
2016/12/13,14:00,0.67,0.092,ND
2016/12/13,14:10,0.69,0.098,ND
2016/12/13,14:20,0.69,0.092,ND
2016/12/13,14:30,0.67,0.10,ND
2016/12/13,14:40,0.66,0.10,ND
2016/12/13,14:50,0.65,0.10,ND
2016/12/13,15:00,0.67,0.11,ND
2016/12/13,15:10,0.68,0.091,ND
2016/12/13,15:20,0.69,0.095,ND
2016/12/13,15:30,0.68,0.094,ND
2016/12/13,15:40,0.69,0.096,ND
2016/12/13,15:50,0.68,0.098,ND
2016/12/13,16:00,0.69,0.092,ND
2016/12/13,16:10,0.67,0.11,ND
2016/12/13,16:20,0.66,0.11,ND
2016/12/13,16:30,0.71,0.093,ND
2016/12/13,16:40,0.70,0.095,ND
2016/12/13,16:50,0.71,0.10,ND
2016/12/13,17:00,0.72,0.11,ND
2016/12/13,17:10,0.76,0.098,ND
2016/12/13,17:20,0.78,0.093,ND
2016/12/13,17:30,0.76,0.11,ND
2016/12/13,17:40,0.79,0.11,ND
2016/12/13,17:50,0.81,0.11,ND
2016/12/13,18:00,0.86,0.087,ND
2016/12/13,18:10,0.84,0.12,ND
2016/12/13,18:20,0.86,0.12,ND
2016/12/13,18:30,0.90,0.092,ND
2016/12/13,18:40,0.88,0.11,ND
2016/12/13,18:50,0.95,0.091,ND
2016/12/13,19:00,1.0,0.084,ND
2016/12/13,19:10,1.0,0.091,ND
2016/12/13,19:20,1.0,0.098,11
2016/12/13,19:30,1.0,0.11,11
2016/12/13,19:40,0.97,0.13,9.2
2016/12/13,19:50,0.95,0.13,10
2016/12/13,20:00,0.91,0.13,11
2016/12/13,20:10,0.89,0.12,12
2016/12/13,20:20,0.90,0.12,ND
2016/12/13,20:30,0.86,0.13,ND
2016/12/13,20:40,0.86,0.13,ND
2016/12/13,20:50,0.83,0.14,ND
2016/12/13,21:00,0.85,0.14,ND
2016/12/13,21:10,0.86,0.14,ND
2016/12/13,21:20,0.84,0.14,ND
2016/12/13,21:30,0.84,0.14,ND
2016/12/13,21:40,0.86,0.12,10
2016/12/13,21:50,0.88,0.11,12
2016/12/13,22:00,0.86,0.10,11
2016/12/13,22:10,0.87,0.099,ND
2016/12/13,22:20,0.90,0.097,ND
2016/12/13,22:30,0.91,0.092,ND
2016/12/13,22:40,0.89,0.097,ND
2016/12/13,22:50,0.91,0.099,ND
2016/12/13,23:00,0.93,0.11,ND
2016/12/13,23:10,0.92,0.11,ND
2016/12/13,23:20,0.90,0.12,ND
2016/12/13,23:30,0.90,0.12,ND
2016/12/13,23:40,0.91,0.13,ND
2016/12/13,23:50,0.89,0.13,ND
